Weather History for Central Park, NY

Change the Weather History Date:

Thursday, January 17, 2013

  Actual Average Record
Temperature  
Mean Temperature 39 °F 32 °F  
Max Temperature 43 °F 38 °F 63 °F (1990)
Min Temperature 35 °F 27 °F -2 °F (1977)
Degree Days  
Heating Degree Days 26 33  
Month to date heating degree days 442 552  
Since 1 July heating degree days 2032 2237  
Cooling Degree Days 0 0  
Month to date cooling degree days 0 0  
Year to date cooling degree days 0 0  
Moisture  
Dew Point 26 °F    
Average Humidity 66    
Maximum Humidity 82    
Minimum Humidity 49    
Precipitation  
Precipitation 0.00 in 0.12 in 1.36 in (1994)
Month to date precipitation 1.47 2.07  
Year to date precipitation 1.47 2.07  
Snow  
Snow 0.00 in 0.20 in 6.00 in (1907)
Month to date snowfall T 3.7  
Since 1 July snowfall 5.1 8.8  
Snow Depth 0.00 in    
Sea Level Pressure  
Sea Level Pressure 30.02 in    
Wind  
Wind Speed 6 mph (NW)    
Max Wind Speed 13 mph    
Max Gust Speed 20 mph    
Visibility 10 miles    
Events      
T = Trace of Precipitation, MM = Missing Value Source: NWS Daily Summary

Daily Weather History Graph

Daily Weather History Graph

Search for Another Location

Airport:

Trip Planner

Search our weather history database for the weather conditions in past years. The results will help you decide how hot, cold, wet, or windy it might be!

Date:

Astronomy

Jan. 17, 2013 Rise Set
Actual Time 7:16 AM EST 4:55 PM EST
Civil Twilight 6:46 AM EST 5:25 PM EST
Nautical Twilight 6:13 AM EST 5:59 PM EST
Astronomical Twilight 5:40 AM EST 6:32 PM EST
Moon 10:19 AM EST (1/17) 11:47 PM EST (1/17)
Length of Visible Light 10h 38m
Length of Day
9h 38m
Waxing Crescent, 37% of the Moon is Illuminated
Jan 17
Waxing Crescent
Jan 18
First Quarter
Jan 26
Full
Feb 3
Last Quarter
Feb 10
New

Hourly Weather History & Observations

Time (EST) Temp. Windchill Dew Point Humidity Pressure Visibility Wind Dir Wind Speed Gust Speed Precip Events Conditions
12:51 AM 37.9 °F 34.4 °F 32.0 °F 79% 29.92 in 10.0 mi Variable 4.6 mph - N/A   Clear
1:51 AM 37.9 °F 33.5 °F 30.9 °F 76% 29.92 in 10.0 mi Variable 5.8 mph - N/A   Clear
2:51 AM 39.0 °F 36.8 °F 30.0 °F 70% 29.93 in 10.0 mi Variable 3.5 mph - N/A   Clear
3:51 AM 39.0 °F 36.8 °F 30.0 °F 70% 29.92 in 10.0 mi Variable 3.5 mph - N/A   Scattered Clouds
4:51 AM 39.0 °F 33.4 °F 28.9 °F 67% 29.91 in 10.0 mi WNW 8.1 mph - N/A   Scattered Clouds
5:51 AM 39.0 °F 34.0 °F 28.0 °F 65% 29.95 in 10.0 mi West 6.9 mph - N/A   Overcast
6:51 AM 39.0 °F 34.8 °F 27.0 °F 62% 29.98 in 10.0 mi WNW 5.8 mph - N/A   Clear
7:51 AM 37.9 °F 33.5 °F 26.1 °F 62% 30.01 in 10.0 mi Variable 5.8 mph - N/A   Clear
8:51 AM 39.0 °F 32.8 °F 26.1 °F 60% 30.05 in 10.0 mi West 9.2 mph - N/A   Clear
9:51 AM 39.9 °F 33.9 °F 26.1 °F 58% 30.06 in 10.0 mi WNW 9.2 mph - N/A   Clear
10:51 AM 39.9 °F 36.7 °F 26.1 °F 58% 30.06 in 10.0 mi Variable 4.6 mph 18.4 mph N/A   Clear
11:51 AM 41.0 °F 35.8 °F 26.1 °F 55% 30.05 in 10.0 mi NW 8.1 mph - N/A   Partly Cloudy
12:51 PM 42.1 °F 36.6 °F 25.0 °F 51% 30.04 in 10.0 mi NW 9.2 mph 16.1 mph N/A   Mostly Cloudy
1:51 PM 43.0 °F 39.5 °F 25.0 °F 49% 30.05 in 10.0 mi Variable 5.8 mph - N/A   Clear
2:51 PM 42.1 °F 37.7 °F 25.0 °F 51% 30.04 in 10.0 mi Variable 6.9 mph - N/A   Clear
3:51 PM 42.1 °F - 24.1 °F 49% 30.05 in 10.0 mi Calm Calm - N/A   Clear
4:51 PM 41.0 °F - 24.1 °F 51% 30.07 in 10.0 mi Calm Calm - N/A   Clear
5:51 PM 39.9 °F - 24.1 °F 53% 30.06 in 10.0 mi Calm Calm - N/A   Mostly Cloudy
6:51 PM 39.9 °F 36.7 °F 24.1 °F 53% 30.09 in 10.0 mi North 4.6 mph - N/A   Overcast
7:51 PM 39.9 °F 36.7 °F 24.1 °F 53% 30.08 in 10.0 mi WNW 4.6 mph - N/A   Overcast
8:51 PM 39.0 °F 33.4 °F 24.1 °F 55% 30.05 in 10.0 mi North 8.1 mph - N/A   Mostly Cloudy
9:51 PM 37.0 °F 31.0 °F 24.1 °F 59% 30.06 in 10.0 mi NE 8.1 mph 17.3 mph N/A   Overcast
10:51 PM 36.0 °F 31.1 °F 24.1 °F 62% 30.01 in 10.0 mi Variable 5.8 mph - N/A   Clear
11:51 PM 36.0 °F 30.3 °F 21.9 °F 57% 30.04 in 10.0 mi NE 6.9 mph - N/A   Overcast